Showing default

FLOCK 4G 15, 62678

Orbit data source: Space-Track

FLOCK 4G 15, 62678 is a payload satellite owned by Planet (US) in SSO that was launched on Tue, 14 Jan 2025 UTC via an FALCON 9 launch vehicle from the Air Force Western Test Range (AFWTR). Payload-class satellites include a variety of spacecraft equipped with specific instruments for various scientific and technological missions. These include communications satellites like Starlink; space stations such as the ISS; scientific satellites like the Hubble; Earth observation satellites from companies like Planet Labs, Umbra, and HawkEye 360; GPS; miniature CubeSats for education and research; and military/defense satellites.

Loading next visibility...
Identifier
62678, 2025-009BX
Orbit
SSO
Country
Flag of USUS
Related business
Manufacturer
Planet
Mission
Operational Commercial Imaging
Bus & Motor
CUBESAT 3U, Unknown motor
Mass
5.7 kg wet, 5.7 kg dry
Launch date (UTC)
2025-01-14 (9 months ago)
Launch vehicle
FALCON 9
Launch site
Air Force Western Test Range (AFWTR)
Object type
Payload
Rocket body
Debris
Shape & HBR
Box + 2 Pan, 1.0 m
Radar Cross Section
0.072 m², Medium (>0.1 m² and < 1m²)

Expand to show TLE details & history
Last TLE update: 19 hours ago

TLE from 19 hours ago
0 FLOCK 4G 15
1 62678U 25009BX  25300.69236759  .00012667  00000-0  53218-3 0  9996
2 62678  97.4229  19.3238 0006333  66.6262 293.5641 15.23554128101078
Epoch: 2025-10-27T16:37Z
TLE epoch observation values (Epoch: 2025-10-27T16:37:00.559Z)
Latitude
-0°
Longitude
93.78091°
Altitude
496.487 km
Speed
7.617 km/s
True Right ascension
01h 17m 17s
True Declination
0° 00' 00"
Sunlit
Object was in full shadow at epoch
Visualization orbit readout
Latitude
Unknown
Longitude
Unknown
Altitude
Unknown
Speed
Unknown
Apparent Right ascension
Unknown
Apparent Declination
Unknown
Sunlit
N/A
Visualization observer readout
Local Sidereal Time
06:35:14
Azimuth
Unknown
Elevation
Unknown
Doppler factor
Unknown
Orbital elements
Apogee altitude
496.443 km
Perigee altitude
487.741 km
Semi-major axis
6,870.229 km
Eccentricity
0.00063
Inclination
97.4229°
RAAN
19.3238°
Arg. of periapsis
66.6262°
True anomaly
293.49756°
Mean anomaly
293.5641°
Eccentric anomaly
293.53083°
Mean motion
3.81142 °/min
Orbital period
94.45 mins
BSTAR
0.00053218
Loading maneuver chart data...
Computing Atmospheric mass density...
Loading historical data...
Loading historical data...
Loading historical data...
Loading historical data...
Loading historical data...
Loading historical data...
Loading historical data...

Documentation

Showing up to 5 results
|